Flag for Germany Weather past 2 weeks in Bad Neuenahr-Ahrweiler, Rhineland-Palatinate, Germany

Now
63 °F

Partly sunny.


Feels Like: 63 °F
Forecast: 67 / 89 °F
Wind: 3 mph from Northeast

Location: Bonn-Hangelar

Current Time: Aug 29, 2015 at 11:33:41 AM

Latest Report: Aug 29, 2015 at 10:00 AM


Visibility: 19 mi

Pressure: 30.19 "Hg

Humidity: 86%

Dew point: 58 °F

Location of Bad Neuenahr-AhrweilerLocation

Historic Weather in Bad Neuenahr-Ahrweiler — Graph

°F

Bad Neuenahr-Ahrweiler temperature yesterday

Maximum temperature yesterday: 67 °F (at 5:00 PM)
Minimum temperature yesterday: 52 °F (at 7:00 AM)
Average temperature yesterday: 60 °F

Past Weeks' High & Low Weather Summary

 TemperatureHumidityPressure
High81 °F (Aug 23, 3:00 PM)100% (Aug 15, 6:00 PM)30.24 "Hg (Aug 15, 6:00 PM)
Low49 °F (Aug 19, 6:00 AM)33% (Aug 23, 3:00 PM)29.50 "Hg (Aug 24, 3:00 PM)
Average63 °F79%29.95 "Hg
* Reported Aug 14 9:00 AM — Aug 29 9:00 AM, Bad Neuenahr-Ahrweiler, Weather by CustomWeather, © 2015

Note: Actual official high and low records may vary slightly from our data, if they occured in-between our weather recording intervals... More about our weather records

Advertising

Bad Neuenahr-Ahrweiler weather history for previous 24 hours

 ConditionsComfort  
Time TempWeatherWind HumidityBarometerVisibility
9:00 AM
Sat, Aug 29
60 °FOvercast.2 mph90%30.19 "Hg19 mi
7:00 AM54 °FSunny.2 mph91%30.19 "Hg37 mi
6:00 AM54 °FClear.2 mph92%30.19 "Hg40 mi
5:00 AM55 °FClear.1 mph92%30.20 "Hg31 mi
4:00 AM53 °FClear.3 mph94%30.19 "Hg19 mi
3:00 AM54 °FClear.2 mph94%30.19 "Hg9 mi
2:00 AM56 °FClear.2 mph90%30.19 "Hg12 mi
1:00 AM55 °FClear.2 mph88%30.20 "Hg19 mi
11:00 PM
Fri, Aug 28
60 °FClear.1 mph82%30.18 "Hg28 mi
10:00 PM58 °FClear.2 mph87%30.16 "Hg22 mi
9:00 PM60 °FClear.1 mph83%30.15 "Hg11 mi
8:00 PM64 °FSunny.2 mph74%30.12 "Hg28 mi
7:00 PM66 °FSunny.3 mph68%30.11 "Hg19 mi
6:00 PM66 °FPassing clouds.3 mph70%30.11 "Hg22 mi
5:00 PM67 °FPassing clouds.3 mph64%30.10 "Hg22 mi
4:00 PM65 °FPassing clouds.3 mph67%30.10 "Hg28 mi
3:00 PM64 °FOvercast.2 mph70%30.09 "Hg31 mi
2:00 PM63 °FScattered clouds.3 mph78%30.09 "Hg28 mi
1:00 PM62 °FOvercast.2 mph77%30.07 "Hg28 mi
12:00 PM61 °FOvercast.2 mph77%30.07 "Hg28 mi
11:00 AM60 °FOvercast.3 mph85%30.05 "Hg31 mi
Weather by CustomWeather, © 2015

See weather overviewHow to use our weather pages